MTG-S1

Last updated on Thu Sep 10 2026 00:02:39 GMT+0000 (Coordinated Universal Time)

1 64723U 25143A 26252.58557498 -.00000027 00000+0 00000+0 0 9993 2 64723 0.5946 347.6940 0003976 252.0316 319.4576 1.00275054 4266
UTC large
Height (km)
Speed (km/s)
/
Latitude / Longitude
Inclination (degrees)
Orbital Period (minutes)
Azimuth
Elevation
Range (km)
Doppler Factor

Next 0 passes for location: London (51.5072 / 0.1276)

No passes found over London.
MTG-S1